Savannah, GA

11:11 AM EDT on September 26, 2017 (GMT -0400)
Savannah International

Weather History for KSAV - September, 2013

Change the Weather History Date:

Monday, September 16, 2013

  Actual Average Record
Temperature  
Mean Temperature 82 °F 77 °F  
Max Temperature 92 °F 86 °F 98 °F (1980)
Min Temperature 71 °F 68 °F 54 °F (2001)
Degree Days  
Heating Degree Days 0 0  
Month to date heating degree days 0 0  
Since 1 July heating degree days 0 0  
Cooling Degree Days 17 12  
Month to date cooling degree days 266 218  
Year to date cooling degree days 2115 2125  
Growing Degree Days 31 (Base 50)    
Moisture  
Dew Point 72 °F    
Average Humidity 73    
Maximum Humidity 94    
Minimum Humidity 52    
Precipitation  
Precipitation 0.28 in 0.14 in 9.02 in (1924)
Month to date precipitation 0.85 2.66  
Year to date precipitation 48.02 37.03  
Sea Level Pressure  
Sea Level Pressure 30.09 in    
Wind  
Wind Speed 3 mph (NE)    
Max Wind Speed 17 mph    
Max Gust Speed 21 mph    
Visibility 9 miles    
Events Rain , Thunderstorm    
T = Trace of Precipitation, MM = Missing Value Source: NWS Daily Summary

Daily Weather History Graph

Daily Weather History Graph

Search for Another Location

Airport or City:

Trip Planner

Search our weather history database for the weather conditions in past years. The results will help you decide how hot, cold, wet, or windy it might be!

Date:

Astronomy

Sep. 16, 2013 Rise Set
Actual Time 7:09 AM EDT 7:29 PM EDT
Civil Twilight 6:44 AM EDT 7:53 PM EDT
Nautical Twilight 6:16 AM EDT 8:22 PM EDT
Astronomical Twilight 5:47 AM EDT 8:51 PM EDT
Moon 5:30 PM EDT (9/16) 4:02 AM EDT (9/16)
Length of Visible Light 13h 08m
Length of Day
12h 19m
Waxing Gibbous, 90% of the Moon is Illuminated
Sep 16
Waxing Gibbous
Sep 19
Full
Sep 26
Last Quarter
Oct 4
New
Oct 11
First Quarter

Hourly Weather History & Observations

Time (EDT) Temp. Heat Index Dew Point Humidity Pressure Visibility Wind Dir Wind Speed Gust Speed Precip Events Conditions
12:53 AM 75.0 °F - 73.0 °F 94% 30.12 in 9.0 mi Calm Calm - N/A   Clear
1:53 AM 75.9 °F - 73.0 °F 91% 30.11 in 10.0 mi Calm Calm - N/A   Mostly Cloudy
2:53 AM 75.9 °F - 73.0 °F 91% 30.11 in 9.0 mi Calm Calm - N/A   Partly Cloudy
3:53 AM 73.0 °F - 71.1 °F 93% 30.09 in 8.0 mi Calm Calm - N/A   Clear
4:53 AM 72.0 °F - 70.0 °F 93% 30.09 in 8.0 mi North 4.6 mph - N/A   Clear
5:53 AM 73.0 °F - 72.0 °F 96% 30.10 in 7.0 mi Calm Calm - N/A   Partly Cloudy
6:53 AM 73.0 °F - 71.1 °F 93% 30.11 in 10.0 mi Calm Calm - N/A   Scattered Clouds
7:53 AM 73.9 °F - 72.0 °F 93% 30.12 in 6.0 mi North 4.6 mph - N/A   Partly Cloudy
8:53 AM 77.0 °F - 75.0 °F 94% 30.12 in 6.0 mi North 3.5 mph - N/A   Scattered Clouds
9:53 AM 82.9 °F 90.2 °F 75.0 °F 77% 30.12 in 10.0 mi NNW 3.5 mph - N/A   Scattered Clouds
10:53 AM 84.0 °F 89.6 °F 72.0 °F 67% 30.13 in 10.0 mi Calm Calm - N/A   Scattered Clouds
11:53 AM 87.1 °F 92.8 °F 71.1 °F 59% 30.12 in 10.0 mi West 3.5 mph - N/A   Scattered Clouds
12:53 PM 88.0 °F 92.9 °F 70.0 °F 55% 30.10 in 10.0 mi Variable 3.5 mph - N/A   Scattered Clouds
1:53 PM 89.1 °F 93.7 °F 69.1 °F 52% 30.08 in 10.0 mi Calm Calm - N/A   Mostly Cloudy
2:53 PM 90.0 °F 95.4 °F 70.0 °F 52% 30.05 in 10.0 mi Variable 3.5 mph - N/A   Mostly Cloudy
3:53 PM 88.0 °F 94.7 °F 72.0 °F 59% 30.03 in 10.0 mi ESE 15.0 mph - N/A   Mostly Cloudy
4:53 PM 87.1 °F 93.6 °F 72.0 °F 61% 30.02 in 10.0 mi SE 10.4 mph - N/A   Mostly Cloudy
5:53 PM 84.0 °F 89.6 °F 72.0 °F 67% 30.02 in 10.0 mi SE 10.4 mph - N/A   Mostly Cloudy
6:16 PM 84.2 °F 89.6 °F 71.6 °F 66% 30.04 in 10.0 mi ENE 11.5 mph 19.6 mph N/A Thunderstorm Thunderstorm
6:42 PM 77.0 °F - 69.8 °F 78% 30.07 in 10.0 mi NNE 11.5 mph - N/A Thunderstorm Thunderstorm
6:53 PM 75.9 °F - 71.1 °F 85% 30.08 in 9.0 mi North 4.6 mph - N/A Thunderstorm Thunderstorm
6:58 PM 75.2 °F - 71.6 °F 89% 30.07 in 1.8 mi Calm Calm - 0.02 in Rain , Thunderstorm Heavy Thunderstorms and Rain
7:01 PM 75.2 °F - 71.6 °F 89% 30.07 in 2.5 mi Calm Calm - 0.07 in Rain , Thunderstorm Heavy Thunderstorms and Rain
7:19 PM 75.2 °F - 71.6 °F 89% 30.09 in 6.0 mi South 6.9 mph - 0.27 in Rain , Thunderstorm Light Thunderstorms and Rain
7:53 PM 75.9 °F - 72.0 °F 87% 30.09 in 9.0 mi NW 3.5 mph - 0.28 in Rain , Thunderstorm Light Thunderstorms and Rain
8:17 PM 75.2 °F - 71.6 °F 89% 30.09 in 10.0 mi South 6.9 mph - 0.00 in   Overcast
8:53 PM 75.0 °F - 72.0 °F 90% 30.09 in 10.0 mi ESE 4.6 mph - 0.00 in Rain Light Rain
10:53 PM 75.0 °F - 72.0 °F 90% 30.08 in 10.0 mi Calm Calm - N/A   Mostly Cloudy
11:53 PM 75.0 °F - 72.0 °F 90% 30.07 in 10.0 mi Calm Calm - N/A   Scattered Clouds